OPS 4682 DEB, 38361

Orbit data source: Space-Track

OPS 4682 DEB, 38361 is space debris in LEO originally from a launch on Sat, 03 Apr 1965 UTC launched from the Air Force Western Test Range (AFWTR). Debris objects in space refer to the collection of defunct objects orbiting the Earth. Examples of debris include non-operational satellites, rocket bodies, and fragments generated from explosions, collisions, or faulty payload assembly.

Loading next visibility...
Identifier
38361, 1965-027BN
Orbit
LEO
Country
Flag of USUS
Related business
Manufacturer
Unknown
Mission
Spacecraft
Bus & Motor
Unknown
Mass
Unknown
Launch date (UTC)
1965-04-03 (61 years ago)
Launch vehicle
Unknown
Launch site
Air Force Western Test Range (AFWTR)
Object type
Payload
Rocket body
Debris
Shape & HBR
Unknown shape, 0.1 m
Radar Cross Section
Medium (>0.1 m² and <1 m²)

Expand to show TLE details & history
Last TLE update: 2 days ago

TLE from 2 days ago
0 OPS 4682 DEB
1 38361U 65027BN  26148.31908865  .00000183  00000-0  57970-3 0  9995
2 38361  90.2437  11.2407 0031798 315.2972  44.5588 13.00369354583363
Epoch: 2026-05-28T07:39Z
TLE epoch observation values (Epoch: 2026-05-28T07:39:29.259Z)
Latitude
0.00001°
Longitude
10.50326°
Altitude
1,246.252 km
Speed
7.24 km/s
True Right ascension
00h 44m 57s
True Declination
0° 00' 00"
Sunlit
Object was in daylight at epoch
Visualization orbit readout
Latitude
Unknown
Longitude
Unknown
Altitude
Unknown
Speed
Unknown
Apparent Right ascension
Unknown
Apparent Declination
Unknown
Sunlit
N/A
Visualization observer readout
Local Sidereal Time
22:06:18
Azimuth
Unknown
Elevation
Unknown
Doppler factor
Unknown
Orbital elements
Apogee altitude
1,282.047 km
Perigee altitude
1,233.486 km
Semi-major axis
7,635.903 km
Eccentricity
0.00318
Inclination
90.2437°
RAAN
11.2407°
Arg. of periapsis
315.2972°
True anomaly
44.81519°
Mean anomaly
44.5588°
Eccentric anomaly
44.68692°
Mean motion
3.25276 °/min
Orbital period
110.68 mins
BSTAR
0.0005797
Loading maneuver chart data...
Computing Atmospheric mass density...
Loading historical data...
Loading historical data...
Loading historical data...
Loading historical data...
Loading historical data...
Loading historical data...
Loading historical data...

Documentation

Showing up to 5 results
|